This is the latest recevied weather packets stored in our database for station/object IZ4MEH-10. If no packets are shown the sender has not sent any weather packets the latest 10 day(s).
| Time | Temp. | Humidity | Pressure | Rain* | Wind** | Luminosity | Snow |
|---|---|---|---|---|---|---|---|
| 1777417534 | 17.78° C | 60% | 1013 hPa | - | - | - | - |
| 1777415732 | 18.33° C | 59% | 1012.8 hPa | - | - | - | - |
| 1777413931 | 18.89° C | 56% | 1012.7 hPa | - | - | - | - |
| 1777412130 | 19.44° C | 54% | 1012.5 hPa | - | - | - | - |
| 1777410329 | 20° C | 54% | 1012.6 hPa | - | - | - | - |
| 1777408527 | 20.56° C | 56% | 1012.5 hPa | - | - | - | - |
| 1777406726 | 21.11° C | 57% | 1012.4 hPa | - | - | - | - |
| 1777404924 | 21.11° C | 56% | 1012.2 hPa | - | - | - | - |
| 1777403122 | 21.67° C | 56% | 1011.8 hPa | - | - | - | - |
| 1777401321 | 22.22° C | 53% | 1011.6 hPa | - | - | - | - |
| 1777399520 | 23.33° C | 47% | 1011.2 hPa | - | - | - | - |
| 1777397718 | 24.44° C | 45% | 1011 hPa | - | - | - | - |
| 1777395918 | 25° C | 43% | 1010.9 hPa | - | - | - | - |
| 1777394117 | 25.56° C | 40% | 1010.9 hPa | - | - | - | - |
| 1777392315 | 26.11° C | 40% | 1010.9 hPa | - | - | - | - |
| 1777390514 | 26.11° C | 40% | 1010.9 hPa | - | - | - | - |
| 1777388713 | 26.11° C | 39% | 1011 hPa | - | - | - | - |
| 1777386911 | 26.67° C | 38% | 1011.2 hPa | - | - | - | - |
| 1777383308 | 26.67° C | 37% | 1011.7 hPa | - | - | - | - |
| 1777381507 | 27.22° C | 38% | 1012 hPa | - | - | - | - |
| 1777379705 | 26.67° C | 37% | 1012.2 hPa | - | - | - | - |
| 1777377904 | 27.22° C | 36% | 1012.4 hPa | - | - | - | - |
| 1777376102 | 27.78° C | 35% | 1012.6 hPa | - | - | - | - |
| 1777374300 | 28.33° C | 35% | 1013 hPa | - | - | - | - |
| 1777372499 | 32.22° C | 32% | 1013.2 hPa | - | - | - | - |
* Rain since midnight (hover to see other rain measurements)
** Current wind speed in m/s (hover to see current wind gust speed)